Weather History for KBDN - July, 2013

Change the Weather History Date:

Tuesday, July 23, 2013

  Actual Average (KRDM) Record (KRDM)
Temperature  
Mean Temperature 76 °F 67 °F  
Max Temperature 95 °F 87 °F 104 °F (2006)
Min Temperature 57 °F 47 °F 32 °F (1963)
Degree Days  
Heating Degree Days 0 1  
Month to date heating degree days 60  
Since 1 June heating degree days 277  
Since 1 July heating degree days 60  
Cooling Degree Days 11 4  
Month to date cooling degree days 68  
Year to date cooling degree days 97  
Since 1 June cooling degree days 92  
Growing Degree Days 26 (Base 50)    
Moisture  
Dew Point 36 °F    
Average Humidity 29    
Maximum Humidity 63    
Minimum Humidity 9    
Precipitation  
Precipitation 0.00 in 0.01 in 0.42 in (1994)
Month to date precipitation 0.41  
Year to date precipitation 5.09  
Sea Level Pressure  
Sea Level Pressure 30.07 in    
Wind  
Wind Speed 6 mph (WNW)    
Max Wind Speed 18 mph    
Max Gust Speed 25 mph    
Visibility 10 miles    
Events      
T = Trace of Precipitation, MM = Missing Value Source: NWS Daily Summary

Daily Weather History Graph

Daily Weather History Graph

Search for Another Location

Airport or City:

Trip Planner

Search our weather history database for the weather conditions in past years. The results will help you decide how hot, cold, wet, or windy it might be!

Date:

Astronomy

Jul. 23, 2013 Rise Set
Actual Time 5:43 AM PDT 8:38 PM PDT
Civil Twilight 5:09 AM PDT 9:12 PM PDT
Nautical Twilight 4:26 AM PDT 9:55 PM PDT
Astronomical Twilight 3:34 AM PDT 10:46 PM PDT
Moon 9:03 PM PDT (7/23) 7:03 AM PDT (7/23)
Length of Visible Light 16h 02m
Length of Day
14h 54m
Full, 98% of the Moon is Illuminated
Jul 23
Full
Jul 29
Last Quarter
Aug 6
New
Aug 14
First Quarter
Aug 20
Full

Hourly Weather History & Observations

Time (PDT) Temp. Dew Point Humidity Pressure Visibility Wind Dir Wind Speed Gust Speed Precip Events Conditions
12:15 AM 64.4 °F 35.6 °F 34% 30.08 in 10.0 mi SSW 4.6 mph - N/A   Clear
12:35 AM 64.4 °F 35.6 °F 34% 30.08 in 10.0 mi Calm Calm - N/A   Clear
12:55 AM 62.6 °F 35.6 °F 37% 30.09 in 10.0 mi South 3.5 mph - N/A   Clear
1:15 AM 62.6 °F 35.6 °F 37% 30.09 in 10.0 mi SW 4.6 mph - N/A   Clear
1:35 AM 59.0 °F 35.6 °F 42% 30.08 in 10.0 mi SW 5.8 mph - N/A   Clear
1:55 AM 60.8 °F 35.6 °F 39% 30.08 in 10.0 mi Calm Calm - N/A   Clear
2:15 AM 59.0 °F 35.6 °F 42% 30.08 in 10.0 mi South 6.9 mph - N/A   Clear
2:35 AM 59.0 °F 35.6 °F 42% 30.08 in 10.0 mi SSW 5.8 mph - N/A   Clear
2:55 AM 59.0 °F 35.6 °F 42% 30.09 in 10.0 mi SSW 5.8 mph - N/A   Clear
3:15 AM 59.0 °F 37.4 °F 45% 30.09 in 10.0 mi SSW 5.8 mph - N/A   Clear
3:35 AM 59.0 °F 37.4 °F 45% 30.09 in 10.0 mi SSW 5.8 mph - N/A   Clear
3:55 AM 57.2 °F 39.2 °F 51% 30.09 in 10.0 mi SSW 5.8 mph - N/A   Clear
4:15 AM 59.0 °F 41.0 °F 51% 30.09 in 10.0 mi SW 9.2 mph - N/A   Clear
4:35 AM 59.0 °F 41.0 °F 51% 30.09 in 10.0 mi SW 5.8 mph - N/A   Clear
4:55 AM 57.2 °F 41.0 °F 55% 30.09 in 10.0 mi SSW 6.9 mph - N/A   Clear
5:15 AM 57.2 °F 42.8 °F 59% 30.09 in 10.0 mi SSW 3.5 mph - N/A   Clear
5:35 AM 57.2 °F 44.6 °F 63% 30.09 in 10.0 mi SSW 5.8 mph - N/A   Clear
5:55 AM 57.2 °F 44.6 °F 63% 30.10 in 10.0 mi SSW 4.6 mph - N/A   Clear
6:15 AM 57.2 °F 44.6 °F 63% 30.10 in 10.0 mi South 5.8 mph - N/A   Clear
6:35 AM 59.0 °F 44.6 °F 59% 30.10 in 10.0 mi SSW 6.9 mph - N/A   Clear
6:55 AM 60.8 °F 46.4 °F 59% 30.11 in 10.0 mi SSW 5.8 mph - N/A   Clear
7:15 AM 62.6 °F 46.4 °F 55% 30.11 in 10.0 mi South 4.6 mph - N/A   Clear
7:35 AM 64.4 °F 46.4 °F 52% 30.11 in 10.0 mi SSW 6.9 mph - N/A   Clear
7:55 AM 66.2 °F 46.4 °F 49% 30.11 in 10.0 mi SSW 6.9 mph - N/A   Clear
8:15 AM 68.0 °F 46.4 °F 46% 30.11 in 10.0 mi SSW 6.9 mph - N/A   Clear
8:35 AM 71.6 °F 46.4 °F 41% 30.11 in 10.0 mi SW 4.6 mph - N/A   Clear
8:55 AM 73.4 °F 44.6 °F 36% 30.10 in 10.0 mi Calm Calm - N/A   Clear
9:15 AM 75.2 °F 37.4 °F 25% 30.11 in 10.0 mi Calm Calm - N/A   Clear
9:35 AM 77.0 °F 37.4 °F 24% 30.10 in 10.0 mi Calm Calm - N/A   Clear
9:55 AM 80.6 °F 37.4 °F 21% 30.10 in 10.0 mi Calm Calm - N/A   Clear
10:15 AM 80.6 °F 30.2 °F 16% 30.09 in 10.0 mi NNE 3.5 mph - N/A   Clear
10:35 AM 82.4 °F 28.4 °F 14% 30.09 in 10.0 mi Calm Calm - N/A   Clear
10:55 AM 84.2 °F 28.4 °F 13% 30.09 in 10.0 mi North 5.8 mph - N/A   Clear
11:15 AM 84.2 °F 28.4 °F 13% 30.08 in 10.0 mi Calm Calm - N/A   Clear
11:35 AM 84.2 °F 28.4 °F 13% 30.08 in 10.0 mi North 5.8 mph - N/A   Clear
11:55 AM 86.0 °F 28.4 °F 12% 30.08 in 10.0 mi NNW 4.6 mph - N/A   Clear
12:15 PM 87.8 °F 28.4 °F 12% 30.07 in 10.0 mi Calm Calm - N/A   Clear
12:35 PM 87.8 °F 28.4 °F 12% 30.06 in 10.0 mi East 4.6 mph - N/A   Clear
12:55 PM 89.6 °F 28.4 °F 11% 30.05 in 10.0 mi North 4.6 mph - N/A   Clear
1:15 PM 91.4 °F 28.4 °F 10% 30.05 in 10.0 mi Calm Calm - N/A   Clear
1:35 PM 93.2 °F 28.4 °F 10% 30.04 in 10.0 mi North 5.8 mph - N/A   Clear
1:55 PM 93.2 °F 28.4 °F 10% 30.03 in 10.0 mi North 6.9 mph - N/A   Clear
2:15 PM 93.2 °F 28.4 °F 10% 30.03 in 10.0 mi NNE 9.2 mph - N/A   Clear
2:35 PM 93.2 °F 28.4 °F 10% 30.02 in 10.0 mi NW 5.8 mph 16.1 mph N/A   Clear
2:55 PM 93.2 °F 28.4 °F 10% 30.02 in 10.0 mi NNW 11.5 mph 17.3 mph N/A   Clear
3:15 PM 93.2 °F 28.4 °F 10% 30.01 in 10.0 mi NNE 10.4 mph 18.4 mph N/A   Clear
3:35 PM 95.0 °F 28.4 °F 9% 30.01 in 10.0 mi NNW 10.4 mph - N/A   Clear
3:55 PM 95.0 °F 28.4 °F 9% 30.01 in 10.0 mi North 10.4 mph 16.1 mph N/A   Clear
4:15 PM 95.0 °F 30.2 °F 10% 30.00 in 10.0 mi NNW 12.7 mph 18.4 mph N/A   Clear
4:35 PM 93.2 °F 32.0 °F 11% 30.01 in 10.0 mi NNW 10.4 mph - N/A   Clear
4:55 PM 93.2 °F 32.0 °F 11% 30.00 in 10.0 mi North 12.7 mph 17.3 mph N/A   Clear
5:15 PM 93.2 °F 32.0 °F 11% 30.00 in 10.0 mi North 10.4 mph 17.3 mph N/A   Clear
5:35 PM 91.4 °F 32.0 °F 12% 30.00 in 10.0 mi NNE 11.5 mph 16.1 mph N/A   Clear
5:55 PM 93.2 °F 30.2 °F 11% 30.00 in 10.0 mi North 10.4 mph 17.3 mph N/A   Clear
6:15 PM 93.2 °F 32.0 °F 11% 30.00 in 10.0 mi NNW 17.3 mph 21.9 mph N/A   Clear
6:35 PM 91.4 °F 37.4 °F 15% 30.01 in 10.0 mi NNW 18.4 mph 25.3 mph N/A   Clear
6:55 PM 89.6 °F 35.6 °F 15% 30.02 in 10.0 mi NW 13.8 mph 19.6 mph N/A   Clear
7:15 PM 89.6 °F 32.0 °F 13% 30.02 in 10.0 mi NW 18.4 mph 24.2 mph N/A   Clear
7:35 PM 87.8 °F 32.0 °F 14% 30.03 in 10.0 mi NW 12.7 mph - N/A   Clear
7:55 PM 86.0 °F 32.0 °F 14% 30.03 in 10.0 mi NNW 10.4 mph - N/A   Clear
8:15 PM 84.2 °F 32.0 °F 15% 30.04 in 10.0 mi NW 11.5 mph - N/A   Clear
8:35 PM 84.2 °F 33.8 °F 16% 30.05 in 10.0 mi NW 10.4 mph - N/A   Clear
8:55 PM 82.4 °F 37.4 °F 20% 30.05 in 10.0 mi NW 10.4 mph - N/A   Clear
9:15 PM 80.6 °F 39.2 °F 23% 30.06 in 10.0 mi NW 6.9 mph - N/A   Clear
9:35 PM 78.8 °F 41.0 °F 26% 30.07 in 10.0 mi NNW 4.6 mph - N/A   Clear
9:55 PM 77.0 °F 42.8 °F 29% 30.08 in 10.0 mi NW 5.8 mph - N/A   Clear
10:15 PM 75.2 °F 44.6 °F 34% 30.09 in 10.0 mi NNW 5.8 mph - N/A   Clear
10:35 PM 73.4 °F 44.6 °F 36% 30.09 in 10.0 mi North 5.8 mph - N/A   Clear
10:55 PM 73.4 °F 46.4 °F 38% 30.09 in 10.0 mi WNW 3.5 mph - N/A   Clear
11:15 PM 71.6 °F 44.6 °F 38% 30.10 in 10.0 mi Calm Calm - N/A   Clear
11:35 PM 68.0 °F 46.4 °F 46% 30.11 in 10.0 mi Calm Calm - N/A   Clear
11:55 PM 68.0 °F 46.4 °F 46% 30.11 in 10.0 mi Calm Calm - N/A   Clear